Location: Unspecified
(0.0000°N, 0.0000°E)
Time: 22:56:41
(UTC+00:00)

Transit 4A - All Passes

Search period start: 19 November 2019 00:00
Search period end: 29 November 2019 00:00
Orbit: 869 x 976 km, 66.8° (Epoch: 18 November)

Date Brightness Start Highest point End Pass type
(mag) Time Alt. Az. Time Alt. Az. Time Alt. Az.
19 Nov - 07:19:04 10° NNE 07:23:10 20° ENE 07:27:17 10° ESE daylight
19 Nov - 09:04:13 10° NW 09:09:12 30° WSW 09:14:17 10° S daylight
19 Nov - 20:14:38 10° SSW 20:21:03 85° WNW 20:27:22 10° NNE visible
20 Nov - 07:27:15 10° N 07:32:27 35° ENE 07:37:41 10° SE daylight
20 Nov - 09:14:50 10° WNW 09:18:31 17° WSW 09:22:15 10° SSW daylight
20 Nov - 18:40:57 10° SE 18:44:10 14° ESE 18:47:23 10° E visible
20 Nov - 20:24:10 10° SW 20:30:19 50° WNW 20:36:24 10° N visible
21 Nov - 07:36:01 10° N 07:41:43 62° ENE 07:47:29 10° SSE daylight
21 Nov - 18:48:26 10° SSE 18:53:31 25° ESE 18:58:32 10° ENE visible
21 Nov - 20:34:10 10° SW 20:39:37 30° WNW 20:45:01 10° NNW visible
22 Nov - 07:45:13 10° NNW 07:50:59 77° WSW 07:56:51 10° SSE daylight
22 Nov - 18:56:52 10° S 19:02:50 42° ESE 19:08:43 10° NE visible
22 Nov - 20:44:53 10° WSW 20:48:55 17° WNW 20:52:56 10° NNW visible
23 Nov - 06:11:28 10° NE 06:14:13 14° ENE 06:16:59 10° E daylight
23 Nov - 07:54:49 10° NW 08:00:16 43° WSW 08:05:48 10° S daylight
23 Nov - 19:05:46 10° SSW 19:12:08 71° ESE 19:18:24 10° NNE visible
24 Nov - 06:18:55 10° NNE 06:23:31 24° ENE 06:28:09 10° ESE daylight
24 Nov - 08:04:56 10° WNW 08:09:34 25° WSW 08:14:15 10° SSW daylight
24 Nov - 19:15:03 10° SSW 19:21:25 71° WNW 19:27:41 10° NNE visible
25 Nov - 06:27:22 10° N 06:32:48 43° ENE 06:38:17 10° SE daylight
25 Nov - 08:16:01 10° W 08:18:53 14° WSW 08:21:47 10° SW daylight
25 Nov - 17:40:29 10° SSE 17:44:34 18° ESE 17:48:36 10° ENE daylight
25 Nov - 19:24:44 10° SW 19:30:42 41° WNW 19:36:34 10° N visible
26 Nov - 06:36:17 10° NNW 06:42:03 76° ENE 06:47:55 10° SSE daylight
26 Nov - 17:48:26 10° S 17:53:54 30° ESE 17:59:17 10° NE daylight
26 Nov - 19:34:57 10° WSW 19:39:59 25° WNW 19:44:58 10° NNW visible
27 Nov - 06:45:38 10° NNW 06:51:19 62° WSW 06:57:08 10° S daylight
27 Nov - 17:57:03 10° S 18:03:12 50° ESE 18:09:17 10° NE daylight
27 Nov - 19:46:08 10° W 19:49:18 14° WNW 19:52:26 10° NW visible
28 Nov - 05:10:57 10° NNE 05:14:34 17° ENE 05:18:13 10° ESE visible
28 Nov - 06:55:23 10° NW 07:00:37 35° WSW 07:05:56 10° S daylight
28 Nov - 18:06:06 10° SSW 18:12:30 84° ESE 18:18:48 10° NNE visible
